GW3397 Weather Reports


Display with metric or nautical units.
time (UTC)temp
F
wind
direction
speed
MPH
gust
MPH
rain 1hr
in
rain 24hr
in
rain mn
in
humidity
%
barometer
mb
20260901111429 64 130 3.0 3.0 0.00 0.34 0.34 98 1021.3
20260901110926 64 130 3.0 3.0 0.00 0.34 0.34 98 1021.4
20260901110423 64 130 3.0 3.0 0.00 0.34 0.34 98 1021.3
20260901105918 64 130 3.0 3.0 0.00 0.34 0.34 98 1021.3
20260901105414 64 130 3.0 3.0 0.00 0.34 0.34 98 1021.4
20260901104909 64 130 3.0 3.0 0.00 0.34 0.34 98 1021.3
20260901104404 64 130 3.0 3.0 0.00 0.34 0.34 98 1021.4
20260901103900 64 94 1.0 1.0 0.00 0.34 0.34 98 1021.3
20260901103354 64 90 0.0 1.0 0.00 0.34 0.34 98 1021.4
20260901102849 64 351 0.0 1.0 0.00 0.34 0.34 98 1021.3
20260901102349 64 33 1.0 2.0 0.00 0.34 0.34 98 1021.5
20260901101844 64 8 3.0 3.0 0.07 0.34 0.34 98 1021.5
20260901101339 64 28 3.0 3.0 0.00 0.33 0.33 98 1021.3
20260901100839 64 62 0.0 1.0 0.00 0.33 0.33 98 1021.1
20260901100339 64 90 1.0 2.0 0.00 0.33 0.33 98 1021.2
20260901095833 64 66 3.0 3.0 0.05 0.33 0.33 98 1020.8
20260901095330 64 18 3.0 6.0 0.05 0.33 0.33 98 1021.0
20260901094824 64 26 1.0 1.0 0.00 0.32 0.32 98 1020.9
20260901094319 64 26 1.0 1.0 0.12 0.32 0.32 98 1021.0
20260901093815 64 26 1.0 1.0 0.12 0.32 0.32 98 1020.8
20260901093313 64 346 1.0 1.0 0.00 0.30 0.30 98 1020.9
20260901092810 64 346 1.0 1.0 0.26 0.30 0.30 98 1020.8
20260901092306 64 141 0.0 1.0 0.00 0.26 0.26 98 1020.8
20260901091801 64 141 0.0 1.0 0.00 0.26 0.26 98 1020.7
20260901091255 64 141 0.0 1.0 0.00 0.26 0.26 98 1020.6
20260901090750 64 141 0.0 1.0 0.00 0.26 0.26 98 1020.7
20260901090245 64 141 0.0 1.0 0.28 0.26 0.26 98 1020.7
20260901085741 64 133 3.0 3.0 0.28 0.26 0.26 98 1020.5
20260901085236 65 113 2.0 2.0 0.12 0.21 0.21 98 1020.5
20260901084732 65 113 2.0 2.0 0.12 0.21 0.21 98 1020.7
20260901084228 65 115 3.0 3.0 0.00 0.19 0.19 98 1020.8
20260901083723 65 134 1.0 3.0 0.00 0.19 0.19 98 1020.7
20260901083222 65 100 2.0 3.0 0.00 0.19 0.19 98 1020.8
20260901082721 65 104 1.0 2.0 0.07 0.19 0.19 98 1020.8
20260901082217 65 137 5.0 6.0 0.19 0.19 0.19 97 1020.7
20260901081712 65 143 0.0 0.0 0.50 0.17 0.17 97 1020.9
20260901081212 65 25 0.0 0.0 0.42 0.16 0.16 97 1020.9
20260901080707 65 121 3.0 3.0 0.00 0.09 0.09 97 1021.1
20260901080206 65 121 3.0 3.0 0.00 0.09 0.09 97 1020.9
20260901075700 65 121 3.0 3.0 0.00 0.09 0.09 97 1020.6
20260901075200 65 121 3.0 3.0 0.17 0.09 0.09 97 1021.3
20260901074659 65 30 0.0 0.0 0.00 0.06 0.06 96 1021.2
20260901074155 65 30 0.0 0.0 0.00 0.06 0.06 96 1020.9
20260901073651 65 30 0.0 0.0 0.12 0.06 0.06 96 1021.4
20260901073146 65 30 0.0 0.0 0.38 0.06 0.06 96 1021.2
20260901072642 65 44 0.0 1.0 0.14 0.02 0.02 96 1021.4
20260901072136 65 99 0.0 1.0 0.00 0.00 0.00 96 1021.5
20260901071631 65 348 0.0 0.0 0.00 0.00 0.00 96 1021.5
20260901071130 65 2 0.0 0.0 0.00 0.00 0.00 96 1021.4
20260901070619 65 18 0.0 0.0 0.00 0.00 0.00 96 1021.6
20260901070115 65 355 0.0 0.0 0.00 0.00 0.00 96 1021.8
20260901065609 65 358 0.0 0.0 0.00 0.00 0.00 96 1021.5
20260901065108 65 26 0.0 0.0 0.00 0.00 0.00 96 1021.5
20260901064606 65 45 0.0 1.0 0.00 0.00 0.00 96 1021.8
20260901064102 65 40 0.0 0.0 0.00 0.00 0.00 96 1021.6
20260901063558 65 40 0.0 0.0 0.00 0.00 0.00 96 1021.7
20260901063049 65 40 0.0 0.0 0.00 0.00 0.00 96 1021.8
20260901062544 65 40 0.0 0.0 0.00 0.00 0.00 96 1021.9
20260901062040 65 40 0.0 0.0 0.00 0.00 0.00 96 1022.0
20260901061536 65 40 0.0 0.0 0.00 0.00 0.00 96 1022.1
20260901061030 65 40 0.0 0.0 0.00 0.00 0.00 96 1021.8
20260901060525 65 220 0.0 0.0 0.00 0.00 0.00 96 1022.0
20260901060020 65 220 0.0 0.0 0.00 0.00 0.00 96 1021.7
20260901055516 65 220 0.0 0.0 0.00 0.00 0.00 96 1022.1
20260901055013 65 220 0.0 0.0 0.00 0.00 0.00 96 1021.9
20260901054509 65 220 0.0 0.0 0.00 0.00 0.00 96 1022.1
20260901054005 65 191 1.0 1.0 0.00 0.00 0.00 96 1022.1
20260901053501 65 14 0.0 0.0 0.00 0.00 0.00 96 1022.2
20260901052956 65 304 0.0 0.0 0.00 0.00 0.00 96 1022.4
20260901052451 65 304 0.0 0.0 0.00 0.00 0.00 96 1022.6
20260901051944 65 304 0.0 0.0 0.00 0.00 0.00 96 1022.5
20260901051440 65 304 0.0 0.0 0.00 0.00 0.00 96 1022.6
20260901050939 65 304 0.0 0.0 0.00 0.00 0.00 96 1022.5
20260901050435 65 304 0.0 0.0 0.00 0.00 0.00 96 1022.7
20260901045934 65 304 0.0 0.0 0.00 0.00 0.00 96 1022.6
20260901045430 65 304 0.0 0.0 0.00 0.00 0.00 96 1022.4
20260901044924 65 304 0.0 0.0 0.00 0.00 0.00 96 1022.6
20260901044420 65 304 0.0 0.0 0.00 0.00 0.00 96 1022.3
20260901043916 65 304 0.0 0.0 0.00 0.00 0.00 96 1022.6
20260901043412 65 336 0.0 0.0 0.00 0.00 0.00 96 1022.6
20260901042906 65 14 0.0 0.0 0.00 0.00 0.00 96 1022.5
20260901042401 65 9 0.0 1.0 0.00 0.00 0.00 96 1022.6
20260901041856 65 346 0.0 0.0 0.00 0.00 0.00 95 1022.6
20260901041351 65 55 0.0 0.0 0.00 0.00 0.00 95 1022.7
20260901040851 65 55 0.0 0.0 0.00 0.00 0.00 95 1022.7
20260901040350 65 75 1.0 1.0 0.00 0.00 0.00 95 1022.5
20260901035845 65 156 0.0 0.0 0.00 0.01 0.01 96 1022.2
20260901035343 65 121 1.0 1.0 0.00 0.01 0.01 96 1022.7
20260901034842 65 132 1.0 1.0 0.00 0.01 0.01 96 1022.7
20260901034337 65 106 0.0 0.0 0.00 0.01 0.01 96 1022.6
20260901033837 65 84 0.0 0.0 0.00 0.01 0.01 96 1022.7
20260901033336 65 17 0.0 0.0 0.00 0.01 0.01 96 1022.8
20260901032835 65 83 0.0 0.0 0.00 0.01 0.01 95 1022.6
20260901032334 65 36 0.0 1.0 0.00 0.01 0.01 95 1023.0
20260901031830 65 45 1.0 1.0 0.00 0.01 0.01 95 1022.9
20260901031326 65 32 0.0 1.0 0.00 0.01 0.01 96 1022.9
20260901030825 65 62 2.0 2.0 0.00 0.01 0.01 96 1023.0
20260901030321 65 51 0.0 1.0 0.00 0.01 0.01 96 1022.8
20260901025820 65 32 1.0 2.0 0.00 0.01 0.01 96 1023.1
20260901025315 65 245 0.0 1.0 0.00 0.01 0.01 96 1023.0
20260901024810 65 306 0.0 0.0 0.00 0.01 0.01 96 1022.5
20260901024308 65 54 0.0 0.0 0.00 0.01 0.01 96 1022.6
20260901023806 65 337 0.0 0.0 0.00 0.01 0.01 96 1022.9
20260901023256 65 24 0.0 0.0 0.00 0.01 0.01 96 1022.7
20260901022752 65 356 0.0 1.0 0.00 0.01 0.01 96 1022.6
20260901022248 65 343 0.0 0.0 0.00 0.01 0.01 96 1023.0
20260901021742 65 338 0.0 0.0 0.00 0.01 0.01 96 1023.3
20260901021238 65 60 0.0 0.0 0.00 0.01 0.01 95 1023.4
20260901020733 65 60 0.0 0.0 0.00 0.01 0.01 95 1023.5
20260901020228 65 60 0.0 0.0 0.00 0.01 0.01 95 1023.3
20260901015723 65 60 0.0 0.0 0.00 0.01 0.01 95 1023.3
20260901015219 65 60 0.0 0.0 0.00 0.01 0.01 95 1023.3
20260901014718 65 60 0.0 0.0 0.00 0.01 0.01 95 1023.3
20260901014214 65 60 0.0 0.0 0.00 0.01 0.01 95 1023.2
20260901013709 65 62 0.0 0.0 0.00 0.01 0.01 95 1023.1
20260901013205 65 74 0.0 1.0 0.00 0.01 0.01 95 1023.2
20260901012700 65 70 0.0 0.0 0.00 0.01 0.01 95 1023.1
20260901012155 65 71 0.0 0.0 0.00 0.01 0.01 95 1023.2
20260901011651 65 72 0.0 0.0 0.00 0.01 0.01 95 1023.2
20260901011150 65 76 0.0 0.0 0.00 0.01 0.01 95 1023.2
20260901010639 65 101 0.0 1.0 0.00 0.01 0.01 95 1023.3
20260901010138 65 104 1.0 1.0 0.00 0.01 0.01 95 1023.1
20260901005632 65 134 1.0 1.0 0.00 0.01 0.01 95 1023.3
20260901005128 65 153 1.0 2.0 0.00 0.01 0.01 95 1023.1
20260901004627 65 122 2.0 3.0 0.00 0.01 0.01 95 1022.9
20260901004122 65 100 1.0 2.0 0.00 0.01 0.01 95 1023.0
20260901003617 65 120 3.0 3.0 0.00 0.01 0.01 95 1022.9
20260901003115 66 126 1.0 3.0 0.00 0.01 0.01 95 1023.0
20260901002610 66 123 2.0 5.0 0.00 0.01 0.01 95 1023.2
20260901002105 66 123 2.0 5.0 0.00 0.01 0.01 95 1023.0
20260901001559 66 131 2.0 5.0 0.00 0.01 0.01 94 1022.8
20260901001054 66 117 2.0 2.0 0.00 0.01 0.01 94 1022.9
20260901000549 67 115 1.0 3.0 0.00 0.01 0.01 94 1023.0
20260901000045 67 124 2.0 2.0 0.00 0.01 0.01 94 1023.1
20260831235538 67 89 2.0 2.0 0.00 0.01 0.01 94 1023.1
20260831235035 67 115 1.0 2.0 0.00 0.01 0.01 94 1023.0
20260831234528 67 88 0.0 1.0 0.00 0.01 0.01 93 1023.1
20260831234024 67 146 1.0 2.0 0.00 0.01 0.01 93 1023.2
20260831233519 67 152 1.0 2.0 0.00 0.01 0.01 93 1023.1
20260831233015 67 115 1.0 2.0 0.00 0.01 0.01 93 1023.0
20260831232510 67 102 0.0 1.0 0.00 0.01 0.01 93 1023.3
20260831232006 67 129 0.0 1.0 0.00 0.01 0.01 93 1023.3
20260831231502 68 134 1.0 1.0 0.00 0.01 0.01 93 1023.4
20260831230958 68 122 2.0 2.0 0.00 0.01 0.01 94 1023.1
20260831230453 68 111 1.0 2.0 0.00 0.01 0.01 93 1023.2
20260831225952 68 99 1.0 2.0 0.00 0.01 0.01 93 1023.2
20260831225448 68 123 1.0 2.0 0.00 0.01 0.01 93 1023.3
20260831224943 68 67 0.0 2.0 0.00 0.01 0.01 92 1023.2
20260831224437 68 79 0.0 1.0 0.00 0.01 0.01 91 1023.4
20260831223932 68 175 1.0 3.0 0.00 0.01 0.01 91 1023.4
20260831223428 68 272 0.0 0.0 0.00 0.01 0.01 93 1023.5
20260831222925 68 343 0.0 0.0 0.00 0.01 0.01 93 1023.5
20260831222420 68 303 0.0 0.0 0.00 0.01 0.01 92 1023.5
20260831221915 69 354 0.0 0.0 0.00 0.01 0.01 92 1023.8
20260831221411 69 325 0.0 0.0 0.00 0.01 0.01 91 1023.8
20260831220906 69 308 0.0 0.0 0.00 0.01 0.01 90 1023.8
20260831220401 69 308 0.0 0.0 0.00 0.01 0.01 89 1023.9
20260831215856 69 310 0.0 0.0 0.00 0.01 0.01 90 1023.6
20260831215351 69 313 0.0 0.0 0.00 0.01 0.01 89 1023.6
20260831214847 69 301 0.0 0.0 0.00 0.01 0.01 90 1023.9
20260831214345 69 310 1.0 1.0 0.00 0.01 0.01 89 1023.8
20260831213845 69 102 0.0 0.0 0.00 0.01 0.01 87 1023.8
20260831213342 70 122 1.0 2.0 0.00 0.01 0.01 85 1024.0
20260831212837 70 173 2.0 2.0 0.00 0.01 0.01 86 1023.8
20260831212334 70 220 0.0 0.0 0.00 0.01 0.01 87 1023.9
20260831211832 69 215 0.0 1.0 0.00 0.01 0.01 87 1024.0
20260831211327 69 119 0.0 1.0 0.00 0.01 0.01 89 1024.0
20260831210826 69 148 0.0 1.0 0.00 0.01 0.01 89 1024.0
20260831210323 69 134 1.0 1.0 0.00 0.01 0.01 88 1024.1
20260831205817 68 149 3.0 3.0 0.00 0.01 0.01 88 1024.2
20260831205313 68 181 1.0 2.0 0.00 0.01 0.01 89 1023.9
20260831204808 69 205 1.0 3.0 0.00 0.01 0.01 88 1024.0
20260831204307 69 253 2.0 5.0 0.00 0.01 0.01 87 1024.0
20260831203806 70 268 0.0 2.0 0.00 0.01 0.01 87 1024.0
20260831203301 70 313 1.0 2.0 0.00 0.01 0.01 87 1024.2
20260831202759 70 267 1.0 1.0 0.00 0.01 0.01 87 1024.0
20260831202254 70 7 1.0 1.0 0.00 0.01 0.01 87 1023.8
20260831201748 70 14 1.0 2.0 0.00 0.01 0.01 88 1024.0
20260831201247 70 15 2.0 2.0 0.00 0.01 0.01 88 1023.9
20260831200743 70 22 2.0 2.0 0.00 0.01 0.01 89 1024.0
20260831200238 71 11 2.0 2.0 0.00 0.01 0.01 89 1023.9
20260831195733 71 27 1.0 2.0 0.00 0.01 0.01 89 1023.8
20260831195230 71 10 2.0 2.0 0.00 0.01 0.01 89 1024.1
20260831194724 71 31 1.0 2.0 0.00 0.01 0.01 87 1024.1
20260831194220 71 4 0.0 1.0 0.00 0.01 0.01 87 1024.2
20260831193718 71 337 1.0 1.0 0.00 0.01 0.01 84 1024.4
20260831193214 71 318 0.0 0.0 0.00 0.01 0.01 84 1024.1
20260831192709 71 305 0.0 0.0 0.00 0.01 0.01 85 1024.4
20260831192204 71 262 0.0 1.0 0.00 0.01 0.01 83 1024.1
20260831191700 71 302 0.0 0.0 0.00 0.01 0.01 84 1024.2
20260831191156 71 310 0.0 0.0 0.00 0.01 0.01 83 1024.2
20260831190651 71 313 0.0 0.0 0.00 0.01 0.01 86 1024.5
20260831190150 70 308 0.0 1.0 0.00 0.01 0.01 86 1024.6
20260831185646 70 13 0.0 1.0 0.00 0.01 0.01 86 1024.5
20260831185142 69 313 0.0 0.0 0.00 0.01 0.01 88 1024.8
20260831184641 70 267 1.0 1.0 0.00 0.01 0.01 89 1024.8
20260831184137 69 256 0.0 0.0 0.00 0.01 0.01 87 1024.6
20260831183631 70 231 0.0 0.0 0.00 0.01 0.01 88 1024.7
20260831183131 71 230 0.0 1.0 0.00 0.01 0.01 87 1024.7
20260831182629 71 230 0.0 1.0 0.00 0.01 0.01 87 1024.8
20260831182126 71 223 1.0 6.0 0.00 0.01 0.01 87 1024.9
20260831181625 72 224 1.0 1.0 0.00 0.01 0.01 88 1024.9
20260831181120 72 10 1.0 1.0 0.00 0.01 0.01 87 1024.8
20260831180615 72 40 2.0 3.0 0.00 0.01 0.01 86 1025.0
20260831180110 72 49 2.0 3.0 0.00 0.01 0.01 86 1025.0
20260831175605 73 20 3.0 3.0 0.00 0.01 0.01 85 1025.2
20260831175102 73 301 1.0 1.0 0.00 0.01 0.01 86 1025.1
20260831174556 72 326 0.0 1.0 0.00 0.01 0.01 87 1025.0
20260831174056 71 349 1.0 1.0 0.00 0.01 0.01 88 1025.0
20260831173554 71 344 2.0 2.0 0.00 0.01 0.01 87 1025.3
20260831173051 71 305 1.0 1.0 0.00 0.01 0.01 86 1024.9
20260831172545 71 356 1.0 1.0 0.00 0.01 0.01 87 1025.2
20260831172040 71 51 0.0 1.0 0.00 0.01 0.01 87 1025.4
20260831171536 72 39 1.0 2.0 0.00 0.01 0.01 87 1025.5
20260831171032 72 45 2.0 2.0 0.00 0.01 0.01 87 1025.6
20260831170528 72 156 5.0 6.0 0.00 0.01 0.01 86 1025.5
20260831170026 72 71 1.0 2.0 0.00 0.01 0.01 88 1025.6
20260831165526 71 53 0.0 1.0 0.00 0.01 0.01 88 1025.7
20260831165023 71 155 2.0 2.0 0.00 0.01 0.01 88 1025.6
20260831164518 71 62 0.0 1.0 0.00 0.01 0.01 88 1025.8
20260831164014 70 42 0.0 2.0 0.00 0.01 0.01 90 1025.8
20260831163509 70 86 1.0 2.0 0.00 0.01 0.01 89 1025.4
20260831163004 70 140 2.0 3.0 0.00 0.01 0.01 89 1025.8
20260831162458 70 150 2.0 3.0 0.00 0.01 0.01 90 1025.7
20260831161955 70 67 2.0 2.0 0.00 0.01 0.01 89 1025.9
20260831161453 70 58 1.0 3.0 0.00 0.01 0.01 90 1025.9
20260831160948 70 68 1.0 1.0 0.00 0.01 0.01 89 1026.0
20260831160447 70 5 0.0 1.0 0.00 0.01 0.01 90 1026.1
20260831155947 70 53 1.0 2.0 0.00 0.01 0.01 90 1026.2
20260831155442 69 72 1.0 3.0 0.00 0.01 0.01 89 1026.0
20260831154938 69 113 3.0 5.0 0.00 0.01 0.01 90 1025.9
20260831154434 69 31 1.0 1.0 0.00 0.01 0.01 91 1026.1
20260831153933 69 122 3.0 5.0 0.00 0.01 0.01 91 1026.0
20260831153429 69 106 1.0 7.0 0.00 0.01 0.01 91 1026.0
20260831152925 69 134 2.0 5.0 0.00 0.01 0.01 90 1026.3
20260831152420 69 141 3.0 3.0 0.00 0.01 0.01 90 1026.3
20260831151915 69 117 1.0 2.0 0.00 0.01 0.01 91 1026.1
20260831151414 69 119 3.0 3.0 0.00 0.01 0.01 90 1026.2
20260831150909 69 35 2.0 3.0 0.00 0.01 0.01 91 1026.3
20260831150405 68 124 3.0 3.0 0.00 0.01 0.01 92 1026.3
20260831145904 69 126 1.0 2.0 0.00 0.01 0.01 93 1026.4
20260831145400 68 33 1.0 2.0 0.00 0.01 0.01 93 1026.4
20260831144856 68 119 3.0 3.0 0.00 0.01 0.01 93 1026.0
20260831144352 67 119 3.0 5.0 0.00 0.01 0.01 93 1026.0
20260831143847 67 66 0.0 3.0 0.00 0.01 0.01 94 1026.0
20260831143342 66 114 3.0 3.0 0.00 0.01 0.01 97 1026.3
20260831142837 66 114 3.0 3.0 0.00 0.01 0.01 97 1026.2
20260831142332 66 107 2.0 2.0 0.00 0.01 0.01 98 1026.2
20260831141832 66 186 0.0 1.0 0.00 0.01 0.01 98 1026.3
20260831141327 65 337 1.0 2.0 0.00 0.01 0.01 98 1026.4
20260831140822 66 51 1.0 2.0 0.00 0.01 0.01 98 1026.3
20260831140316 65 155 1.0 1.0 0.00 0.01 0.01 98 1026.4
20260831135815 65 58 1.0 1.0 0.00 0.01 0.01 98 1026.3
20260831135310 64 320 1.0 1.0 0.00 0.01 0.01 98 1026.1
20260831134805 64 325 1.0 1.0 0.00 0.01 0.01 98 1026.1
20260831134302 64 112 1.0 2.0 0.00 0.01 0.01 98 1026.3
20260831133801 64 116 1.0 2.0 0.00 0.01 0.01 98 1026.3
20260831133300 64 21 0.0 2.0 0.00 0.01 0.01 99 1026.3
20260831132755 64 356 1.0 2.0 0.00 0.01 0.01 98 1026.3
20260831132250 64 16 2.0 3.0 0.00 0.01 0.01 98 1026.3
20260831131744 64 9 0.0 1.0 0.00 0.01 0.01 99 1026.4
20260831131241 64 50 3.0 3.0 0.00 0.01 0.01 98 1026.3
20260831130736 64 23 0.0 2.0 0.00 0.01 0.01 99 1026.3
20260831130231 64 1 1.0 2.0 0.00 0.01 0.01 98 1026.2
20260831125729 64 342 1.0 2.0 0.00 0.01 0.01 98 1026.5
20260831125226 64 14 1.0 2.0 0.00 0.01 0.01 99 1026.4
20260831124720 64 113 1.0 2.0 0.00 0.01 0.01 98 1026.2
20260831124216 64 34 1.0 2.0 0.00 0.01 0.01 98 1026.5
20260831123716 63 45 1.0 2.0 0.00 0.01 0.01 98 1026.2
20260831123215 63 13 1.0 2.0 0.00 0.01 0.01 98 1026.3
20260831122710 64 7 0.0 1.0 0.00 0.01 0.01 99 1026.3
20260831122206 63 44 1.0 1.0 0.00 0.01 0.01 98 1026.4
20260831121705 63 23 0.0 1.0 0.00 0.01 0.01 98 1026.3
20260831121202 63 19 0.0 0.0 0.00 0.01 0.01 98 1026.1
20260831120657 63 13 0.0 0.0 0.00 0.01 0.01 99 1026.3
20260831120151 63 335 0.0 0.0 0.00 0.01 0.01 99 1026.4
20260831115647 62 71 0.0 0.0 0.00 0.01 0.01 99 1026.5
20260831115143 62 71 0.0 0.0 0.00 0.01 0.01 99 1026.7
20260831114642 62 71 0.0 0.0 0.00 0.01 0.01 99 1026.4
20260831114137 62 49 1.0 2.0 0.00 0.01 0.01 98 1026.3
20260831113636 62 46 0.0 0.0 0.00 0.01 0.01 98 1026.5
20260831113132 62 39 0.0 0.0 0.00 0.01 0.01 99 1026.3
20260831112631 62 30 0.0 0.0 0.00 0.01 0.01 98 1026.2
20260831112126 62 337 0.0 0.0 0.00 0.01 0.01 98 1026.2
20260831111622 62 267 0.0 0.0 0.00 0.01 0.01 99 1026.0